| time (UTC) | temp F | wind direction | speed knots | gust knots | rain 1hr in | rain 24hr in | rain mn in | humidity % | barometer mb |
| 20260507093357 | 60 | 32 | 7.0 | 11.3 | 0.00 | 0.00 | 0.00 | 58 | 1015.8 |
| 20260507092631 | 60 | 6 | 7.8 | 10.4 | 0.00 | 0.00 | 0.00 | 59 | 1015.8 |
| 20260507092128 | 61 | 0 | 6.1 | 10.4 | 0.00 | 0.00 | 0.00 | 59 | 1015.8 |
| 20260507091628 | 62 | 359 | 6.1 | 9.6 | 0.00 | 0.00 | 0.00 | 57 | 1015.9 |
| 20260507091129 | 63 | 3 | 7.8 | 9.6 | 0.00 | 0.00 | 0.00 | 54 | 1015.8 |
| 20260507090628 | 63 | 359 | 4.3 | 10.4 | 0.00 | 0.00 | 0.00 | 56 | 1015.7 |
| 20260507090350 | 63 | 30 | 5.2 | 10.4 | 0.00 | 0.00 | 0.00 | 57 | 1015.8 |
| 20260507085626 | 63 | 0 | 3.5 | 13.0 | 0.00 | 0.00 | 0.00 | 58 | 1015.7 |
| 20260507085125 | 63 | 19 | 4.3 | 13.0 | 0.00 | 0.00 | 0.00 | 57 | 1015.8 |
| 20260507084627 | 63 | 4 | 7.8 | 11.3 | 0.00 | 0.00 | 0.00 | 56 | 1015.6 |
| 20260507084125 | 63 | 13 | 7.0 | 10.4 | 0.00 | 0.00 | 0.00 | 57 | 1015.6 |
| 20260507083625 | 63 | 353 | 6.1 | 12.2 | 0.00 | 0.00 | 0.00 | 55 | 1015.6 |
| 20260507083123 | 63 | 17 | 4.3 | 12.2 | 0.00 | 0.00 | 0.00 | 60 | 1015.7 |
| 20260507082623 | 63 | 16 | 4.3 | 9.6 | 0.00 | 0.00 | 0.00 | 60 | 1015.7 |
| 20260507082350 | 63 | 4 | 6.1 | 9.6 | 0.00 | 0.00 | 0.00 | 60 | 1015.7 |
| 20260507081622 | 62 | 13 | 6.1 | 9.6 | 0.00 | 0.00 | 0.00 | 62 | 1015.7 |
| 20260507081121 | 62 | 359 | 7.0 | 9.6 | 0.00 | 0.00 | 0.00 | 63 | 1015.6 |
| 20260507080622 | 61 | 57 | 3.5 | 9.6 | 0.00 | 0.00 | 0.00 | 65 | 1015.6 |
| 20260507080353 | 60 | 33 | 3.5 | 11.3 | 0.00 | 0.00 | 0.00 | 67 | 1015.6 |
| 20260507075620 | 60 | 18 | 3.5 | 11.3 | 0.00 | 0.00 | 0.00 | 69 | 1015.5 |
| 20260507075121 | 58 | 2 | 5.2 | 9.6 | 0.00 | 0.00 | 0.00 | 72 | 1015.4 |
| 20260507074618 | 55 | 16 | 7.0 | 9.6 | 0.00 | 0.00 | 0.00 | 77 | 1015.5 |
| 20260507074118 | 53 | 26 | 5.2 | 10.4 | 0.00 | 0.00 | 0.00 | 80 | 1015.5 |
| 20260507073621 | 53 | 5 | 4.3 | 10.4 | 0.00 | 0.00 | 0.00 | 81 | 1015.5 |
| 20260507073118 | 52 | 7 | 7.0 | 10.4 | 0.00 | 0.00 | 0.00 | 82 | 1015.6 |
| 20260507072616 | 52 | 9 | 7.8 | 11.3 | 0.00 | 0.00 | 0.00 | 82 | 1015.7 |
| 20260507072115 | 51 | 3 | 7.0 | 13.9 | 0.00 | 0.00 | 0.00 | 83 | 1015.5 |
| 20260507071618 | 51 | 359 | 11.3 | 13.9 | 0.00 | 0.00 | 0.00 | 84 | 1015.4 |
| 20260507071102 | 51 | 351 | 7.8 | 12.2 | 0.00 | 0.00 | 0.00 | 85 | 1015.5 |
| 20260507070602 | 50 | 357 | 8.7 | 12.2 | 0.00 | 0.00 | 0.00 | 85 | 1015.5 |
| 20260507070104 | 50 | 29 | 7.0 | 12.2 | 0.00 | 0.00 | 0.00 | 86 | 1015.5 |
| 20260507065602 | 50 | 7 | 8.7 | 11.3 | 0.00 | 0.00 | 0.00 | 87 | 1015.4 |
| 20260507065334 | 49 | 3 | 4.3 | 11.3 | 0.00 | 0.00 | 0.00 | 88 | 1015.5 |
| 20260507064604 | 49 | 9 | 9.6 | 10.4 | 0.00 | 0.00 | 0.00 | 89 | 1015.4 |
| 20260507064103 | 49 | 4 | 7.8 | 10.4 | 0.00 | 0.00 | 0.00 | 91 | 1015.4 |
| 20260507063604 | 48 | 3 | 6.1 | 10.4 | 0.00 | 0.00 | 0.00 | 92 | 1015.3 |
| 20260507063332 | 48 | 353 | 7.8 | 9.6 | 0.00 | 0.00 | 0.00 | 94 | 1015.2 |
| 20260507062614 | 47 | 353 | 6.1 | 7.8 | 0.00 | 0.00 | 0.00 | 95 | 1015.2 |
| 20260507062606 | 48 | 14 | 8.7 | 9.6 | 0.00 | 0.00 | 0.00 | 94 | 1015.1 |
| 20260507061602 | 47 | 0 | 3.5 | 7.0 | 0.00 | 0.00 | 0.00 | 95 | 1015.2 |
| 20260507061103 | 47 | 349 | 3.5 | 5.2 | 0.00 | 0.00 | 0.00 | 95 | 1015.2 |
| 20260507060830 | 46 | 355 | 3.5 | 5.2 | 0.00 | 0.00 | 0.00 | 95 | 1015.2 |
| 20260507055823 | 46 | 350 | 5.2 | 6.1 | 0.00 | 0.00 | 0.00 | 95 | 1015.1 |
| 20260507055102 | 46 | 355 | 5.2 | 7.0 | 0.00 | 0.00 | 0.00 | 95 | 1014.9 |
| 20260507054603 | 46 | 354 | 6.1 | 7.0 | 0.00 | 0.00 | 0.00 | 95 | 1015.1 |
| 20260507054102 | 46 | 352 | 6.1 | 7.0 | 0.00 | 0.00 | 0.00 | 94 | 1015.0 |
| 20260507053603 | 45 | 356 | 4.3 | 5.2 | 0.00 | 0.00 | 0.00 | 94 | 1014.8 |
| 20260507053103 | 45 | 358 | 3.5 | 5.2 | 0.00 | 0.00 | 0.00 | 94 | 1014.8 |
| 20260507052604 | 45 | 358 | 3.5 | 5.2 | 0.00 | 0.00 | 0.00 | 93 | 1014.9 |
| 20260507052328 | 45 | 357 | 4.3 | 4.3 | 0.00 | 0.00 | 0.00 | 93 | 1014.8 |
| 20260507051601 | 45 | 355 | 4.3 | 4.3 | 0.00 | 0.00 | 0.00 | 93 | 1014.7 |
| 20260507051104 | 45 | 357 | 3.5 | 4.3 | 0.00 | 0.00 | 0.00 | 93 | 1014.8 |
| 20260507050600 | 45 | 4 | 3.5 | 4.3 | 0.00 | 0.00 | 0.00 | 93 | 1014.8 |
| 20260507050100 | 45 | 358 | 3.5 | 3.5 | 0.00 | 0.00 | 0.00 | 93 | 1014.6 |
| 20260507045826 | 45 | 353 | 2.6 | 3.5 | 0.00 | 0.00 | 0.00 | 93 | 1014.6 |
| 20260507045059 | 45 | 0 | 3.5 | 3.5 | 0.00 | 0.00 | 0.00 | 92 | 1014.7 |
| 20260507044558 | 45 | 356 | 2.6 | 5.2 | 0.00 | 0.00 | 0.00 | 92 | 1014.5 |
| 20260507044057 | 45 | 351 | 3.5 | 6.1 | 0.00 | 0.00 | 0.00 | 92 | 1014.3 |
| 20260507043557 | 45 | 350 | 4.3 | 6.1 | 0.00 | 0.00 | 0.00 | 92 | 1014.3 |
| 20260507043056 | 45 | 355 | 5.2 | 6.1 | 0.00 | 0.00 | 0.00 | 91 | 1014.4 |
| 20260507042557 | 46 | 358 | 4.3 | 5.2 | 0.00 | 0.00 | 0.00 | 91 | 1014.2 |
| 20260507042055 | 46 | 0 | 3.5 | 6.1 | 0.00 | 0.00 | 0.00 | 90 | 1014.2 |
| 20260507041556 | 46 | 9 | 4.3 | 6.1 | 0.00 | 0.00 | 0.00 | 90 | 1014.2 |
| 20260507041054 | 46 | 12 | 5.2 | 7.0 | 0.00 | 0.00 | 0.00 | 90 | 1014.1 |
| 20260507040553 | 46 | 14 | 5.2 | 7.8 | 0.00 | 0.00 | 0.00 | 90 | 1014.1 |
| 20260507040054 | 46 | 21 | 4.3 | 7.8 | 0.00 | 0.00 | 0.00 | 90 | 1013.9 |
| 20260507035553 | 46 | 357 | 5.2 | 7.8 | 0.00 | 0.00 | 0.00 | 89 | 1014.1 |
| 20260507035052 | 47 | 12 | 5.2 | 7.8 | 0.00 | 0.00 | 0.00 | 89 | 1014.1 |
| 20260507034551 | 47 | 5 | 5.2 | 8.7 | 0.00 | 0.00 | 0.00 | 88 | 1014.2 |
| 20260507034102 | 47 | 20 | 6.1 | 11.3 | 0.00 | 0.00 | 0.00 | 88 | 1014.0 |
| 20260507034054 | 47 | 352 | 6.1 | 11.3 | 0.00 | 0.00 | 0.00 | 88 | 1014.2 |
| 20260507033051 | 47 | 16 | 7.8 | 11.3 | 0.00 | 0.00 | 0.00 | 88 | 1013.9 |
| 20260507032550 | 47 | 13 | 7.0 | 12.2 | 0.00 | 0.00 | 0.00 | 88 | 1013.9 |
| 20260507032328 | 47 | 18 | 7.8 | 12.2 | 0.00 | 0.00 | 0.00 | 88 | 1013.6 |
| 20260507031550 | 47 | 10 | 7.8 | 11.3 | 0.00 | 0.00 | 0.00 | 88 | 1013.8 |
| 20260507031047 | 47 | 2 | 9.6 | 11.3 | 0.00 | 0.00 | 0.00 | 87 | 1013.7 |
| 20260507030547 | 47 | 2 | 7.8 | 10.4 | 0.00 | 0.00 | 0.00 | 87 | 1013.8 |
| 20260507030047 | 47 | 2 | 7.8 | 10.4 | 0.00 | 0.00 | 0.00 | 87 | 1013.7 |
| 20260507025546 | 47 | 20 | 7.0 | 10.4 | 0.00 | 0.00 | 0.00 | 87 | 1013.7 |
| 20260507025320 | 48 | 14 | 7.8 | 10.4 | 0.00 | 0.00 | 0.00 | 87 | 1013.8 |
| 20260507024545 | 48 | 10 | 7.8 | 11.3 | 0.00 | 0.00 | 0.00 | 87 | 1013.7 |
| 20260507024044 | 48 | 6 | 9.6 | 11.3 | 0.00 | 0.00 | 0.00 | 87 | 1013.7 |
| 20260507023530 | 48 | 21 | 7.0 | 8.7 | 0.00 | 0.00 | 0.00 | 87 | 1013.7 |
| 20260507023030 | 48 | 17 | 7.8 | 11.3 | 0.00 | 0.00 | 0.00 | 87 | 1013.7 |
| 20260507022530 | 48 | 21 | 7.8 | 11.3 | 0.00 | 0.00 | 0.00 | 87 | 1013.6 |
| 20260507022030 | 48 | 33 | 7.0 | 10.4 | 0.00 | 0.00 | 0.00 | 87 | 1013.6 |
| 20260507021532 | 48 | 24 | 6.1 | 10.4 | 0.00 | 0.00 | 0.00 | 87 | 1013.5 |
| 20260507021030 | 48 | 5 | 7.8 | 10.4 | 0.00 | 0.00 | 0.00 | 87 | 1013.4 |
| 20260507020531 | 49 | 27 | 7.0 | 10.4 | 0.00 | 0.00 | 0.00 | 87 | 1013.3 |
| 20260507020030 | 49 | 348 | 7.8 | 10.4 | 0.00 | 0.00 | 0.00 | 87 | 1013.5 |
| 20260507015532 | 49 | 13 | 8.7 | 10.4 | 0.00 | 0.00 | 0.00 | 87 | 1013.3 |
| 20260507015029 | 49 | 14 | 7.0 | 10.4 | 0.00 | 0.00 | 0.00 | 87 | 1013.2 |
| 20260507014758 | 49 | 20 | 7.8 | 10.4 | 0.00 | 0.00 | 0.00 | 87 | 1013.1 |
| 20260507014257 | 49 | 357 | 8.7 | 8.7 | 0.00 | 0.00 | 0.00 | 86 | 1013.3 |
| 20260507013757 | 49 | 352 | 7.8 | 9.6 | 0.00 | 0.00 | 0.00 | 86 | 1013.2 |
| 20260507013030 | 49 | 355 | 6.1 | 9.6 | 0.00 | 0.00 | 0.00 | 85 | 1013.3 |
| 20260507012532 | 49 | 3 | 6.1 | 10.4 | 0.00 | 0.00 | 0.00 | 85 | 1013.3 |
| 20260507012030 | 49 | 352 | 7.8 | 10.4 | 0.00 | 0.00 | 0.00 | 85 | 1013.0 |
| 20260507011530 | 49 | 11 | 7.8 | 9.6 | 0.00 | 0.00 | 0.00 | 85 | 1013.2 |
| 20260507011030 | 49 | 351 | 7.8 | 9.6 | 0.00 | 0.00 | 0.00 | 85 | 1013.3 |
| 20260507010530 | 49 | 6 | 7.0 | 8.7 | 0.00 | 0.00 | 0.00 | 84 | 1013.2 |
| 20260507010032 | 49 | 27 | 7.0 | 11.3 | 0.00 | 0.00 | 0.00 | 83 | 1013.2 |
| 20260507005532 | 50 | 0 | 7.0 | 11.3 | 0.00 | 0.00 | 0.00 | 83 | 1013.2 |
| 20260507005030 | 50 | 8 | 5.2 | 10.4 | 0.00 | 0.00 | 0.00 | 83 | 1013.1 |
| 20260507004531 | 50 | 355 | 7.0 | 10.4 | 0.00 | 0.00 | 0.00 | 82 | 1013.0 |
| 20260507004030 | 50 | 17 | 6.1 | 10.4 | 0.00 | 0.00 | 0.00 | 81 | 1012.9 |
| 20260507003531 | 51 | 12 | 7.8 | 9.6 | 0.00 | 0.00 | 0.00 | 81 | 1013.0 |
| 20260507003301 | 51 | 0 | 7.0 | 11.3 | 0.00 | 0.00 | 0.00 | 80 | 1013.0 |
| 20260507002530 | 51 | 358 | 11.3 | 12.2 | 0.00 | 0.00 | 0.00 | 80 | 1012.8 |
| 20260507002030 | 51 | 9 | 7.8 | 13.0 | 0.00 | 0.00 | 0.00 | 79 | 1013.0 |
| 20260507001528 | 51 | 351 | 8.7 | 13.0 | 0.00 | 0.00 | 0.00 | 79 | 1012.9 |
| 20260507001027 | 51 | 10 | 9.6 | 13.0 | 0.00 | 0.00 | 0.00 | 79 | 1013.0 |
| 20260507000527 | 51 | 5 | 7.8 | 11.3 | 0.00 | 0.00 | 0.00 | 78 | 1013.1 |
| 20260507000027 | 51 | 0 | 7.0 | 11.3 | 0.00 | 0.00 | 0.00 | 77 | 1013.0 |
| 20260506235528 | 51 | 3 | 7.8 | 11.3 | 0.00 | 0.00 | 0.00 | 77 | 1013.1 |
| 20260506235027 | 51 | 29 | 7.0 | 11.3 | 0.00 | 0.00 | 0.00 | 77 | 1012.9 |
| 20260506234525 | 52 | 356 | 8.7 | 10.4 | 0.00 | 0.00 | 0.00 | 77 | 1013.0 |
| 20260506234024 | 52 | 29 | 9.6 | 12.2 | 0.00 | 0.00 | 0.00 | 76 | 1012.9 |
| 20260506233523 | 52 | 26 | 11.3 | 13.0 | 0.00 | 0.00 | 0.00 | 76 | 1012.7 |
| 20260506233025 | 52 | 6 | 7.0 | 13.0 | 0.00 | 0.00 | 0.00 | 76 | 1012.7 |
| 20260506232524 | 52 | 351 | 5.2 | 13.0 | 0.00 | 0.00 | 0.00 | 76 | 1012.7 |
| 20260506232022 | 52 | 2 | 8.7 | 13.0 | 0.00 | 0.00 | 0.00 | 76 | 1012.6 |
| 20260506231522 | 52 | 354 | 9.6 | 12.2 | 0.00 | 0.00 | 0.00 | 75 | 1012.7 |
| 20260506231300 | 52 | 354 | 7.0 | 12.2 | 0.00 | 0.00 | 0.00 | 75 | 1012.6 |
| 20260506230520 | 52 | 5 | 8.7 | 12.2 | 0.00 | 0.00 | 0.00 | 75 | 1012.6 |
| 20260506230019 | 52 | 3 | 6.1 | 12.2 | 0.00 | 0.00 | 0.00 | 74 | 1012.8 |
| 20260506225521 | 52 | 351 | 9.6 | 10.4 | 0.00 | 0.00 | 0.00 | 75 | 1012.6 |
| 20260506225020 | 52 | 13 | 6.1 | 9.6 | 0.00 | 0.00 | 0.00 | 75 | 1012.6 |
| 20260506224753 | 52 | 353 | 7.8 | 9.6 | 0.00 | 0.00 | 0.00 | 75 | 1012.5 |
| 20260506224020 | 52 | 354 | 5.2 | 10.4 | 0.00 | 0.00 | 0.00 | 75 | 1012.5 |
| 20260506223518 | 52 | 9 | 6.1 | 11.3 | 0.00 | 0.00 | 0.00 | 75 | 1012.4 |
| 20260506223016 | 52 | 353 | 9.6 | 11.3 | 0.00 | 0.00 | 0.00 | 75 | 1012.4 |
| 20260506222518 | 52 | 1 | 6.1 | 10.4 | 0.00 | 0.00 | 0.00 | 76 | 1012.5 |
| 20260506222027 | 52 | 10 | 4.3 | 6.1 | 0.00 | 0.00 | 0.00 | 77 | 1012.4 |
| 20260506222023 | 52 | 2 | 5.2 | 7.0 | 0.00 | 0.00 | 0.00 | 78 | 1012.4 |
| 20260506221016 | 52 | 359 | 3.5 | 5.2 | 0.00 | 0.00 | 0.00 | 77 | 1012.6 |
| 20260506220515 | 52 | 357 | 3.5 | 5.2 | 0.00 | 0.00 | 0.00 | 77 | 1012.4 |
| 20260506220017 | 52 | 357 | 3.5 | 4.3 | 0.00 | 0.00 | 0.00 | 77 | 1012.5 |
| 20260506215746 | 52 | 359 | 1.7 | 4.3 | 0.00 | 0.00 | 0.00 | 77 | 1012.4 |
| 20260506215012 | 52 | 350 | 2.6 | 2.6 | 0.00 | 0.00 | 0.00 | 76 | 1012.5 |
| 20260506214513 | 52 | 2 | 1.7 | 2.6 | 0.00 | 0.00 | 0.00 | 76 | 1012.2 |
| 20260506214011 | 53 | 2 | 2.6 | 2.6 | 0.00 | 0.00 | 0.00 | 75 | 1012.3 |
| 20260506213510 | 53 | 352 | 1.7 | 2.6 | 0.00 | 0.00 | 0.00 | 74 | 1012.2 |
| 20260506213009 | 53 | 0 | 1.7 | 2.6 | 0.00 | 0.00 | 0.00 | 73 | 1012.2 |
| 20260506212509 | 53 | 358 | 1.7 | 1.7 | 0.00 | 0.00 | 0.00 | 73 | 1012.2 |
| 20260506212009 | 53 | 0 | 1.7 | 1.7 | 0.00 | 0.00 | 0.00 | 72 | 1012.1 |
| 20260506211509 | 53 | 0 | 1.7 | 1.7 | 0.00 | 0.00 | 0.00 | 72 | 1012.0 |
| 20260506211009 | 53 | 356 | 1.7 | 1.7 | 0.00 | 0.00 | 0.00 | 72 | 1011.9 |
| 20260506210733 | 53 | 0 | 1.7 | 1.7 | 0.00 | 0.00 | 0.00 | 72 | 1012.0 |
| 20260506210009 | 53 | 12 | 1.7 | 2.6 | 0.00 | 0.00 | 0.00 | 72 | 1012.1 |
| 20260506205505 | 53 | 359 | 1.7 | 3.5 | 0.00 | 0.00 | 0.00 | 72 | 1012.1 |
| 20260506205007 | 53 | 0 | 0.9 | 3.5 | 0.00 | 0.00 | 0.00 | 72 | 1012.0 |
| 20260506204504 | 53 | 14 | 1.7 | 2.6 | 0.00 | 0.00 | 0.00 | 72 | 1011.9 |
| 20260506204005 | 53 | 6 | 2.6 | 2.6 | 0.00 | 0.00 | 0.00 | 71 | 1011.9 |
| 20260506203504 | 53 | 41 | 2.6 | 3.5 | 0.00 | 0.00 | 0.00 | 71 | 1011.8 |
| 20260506203006 | 53 | 21 | 1.7 | 3.5 | 0.00 | 0.00 | 0.00 | 71 | 1011.9 |
| 20260506202733 | 53 | 32 | 2.6 | 3.5 | 0.00 | 0.00 | 0.00 | 71 | 1012.1 |
| 20260506202004 | 53 | 30 | 2.6 | 3.5 | 0.00 | 0.00 | 0.00 | 70 | 1011.9 |
| 20260506201504 | 53 | 31 | 2.6 | 3.5 | 0.00 | 0.00 | 0.00 | 70 | 1011.8 |
| 20260506201001 | 53 | 55 | 3.5 | 3.5 | 0.00 | 0.00 | 0.00 | 70 | 1011.8 |
| 20260506200501 | 53 | 23 | 2.6 | 3.5 | 0.00 | 0.00 | 0.00 | 70 | 1011.7 |
| 20260506200000 | 53 | 37 | 2.6 | 3.5 | 0.00 | 0.00 | 0.00 | 69 | 1011.6 |
| 20260506195501 | 53 | 18 | 1.7 | 3.5 | 0.00 | 0.00 | 0.00 | 69 | 1011.5 |
| 20260506194959 | 53 | 52 | 1.7 | 3.5 | 0.00 | 0.00 | 0.00 | 69 | 1011.5 |
| 20260506194459 | 53 | 29 | 1.7 | 3.5 | 0.00 | 0.00 | 0.00 | 69 | 1011.6 |
| 20260506194004 | 53 | 21 | 1.7 | 2.6 | 0.00 | 0.00 | 0.00 | 68 | 1011.7 |
| 20260506193958 | 53 | 43 | 1.7 | 3.5 | 0.00 | 0.00 | 0.00 | 68 | 1011.5 |
| 20260506192958 | 54 | 21 | 2.6 | 3.5 | 0.00 | 0.00 | 0.00 | 67 | 1011.5 |
| 20260506192456 | 54 | 28 | 3.5 | 3.5 | 0.00 | 0.00 | 0.00 | 67 | 1011.4 |
| 20260506192226 | 54 | 9 | 0.9 | 3.5 | 0.00 | 0.00 | 0.00 | 67 | 1011.3 |
| 20260506191455 | 54 | 41 | 2.6 | 4.3 | 0.00 | 0.00 | 0.00 | 67 | 1011.4 |
| 20260506190956 | 54 | 73 | 1.7 | 4.3 | 0.00 | 0.00 | 0.00 | 66 | 1011.2 |
| 20260506190721 | 54 | 45 | 3.5 | 4.3 | 0.00 | 0.00 | 0.00 | 66 | 1011.1 |
| 20260506185954 | 54 | 94 | 1.7 | 3.5 | 0.00 | 0.00 | 0.00 | 66 | 1011.1 |
| 20260506185452 | 54 | 77 | 2.6 | 4.3 | 0.00 | 0.00 | 0.00 | 65 | 1010.8 |
| 20260506184952 | 54 | 79 | 2.6 | 4.3 | 0.00 | 0.00 | 0.00 | 65 | 1010.8 |
| 20260506184726 | 55 | 33 | 1.7 | 4.3 | 0.00 | 0.00 | 0.00 | 65 | 1011.0 |
| 20260506183953 | 55 | 63 | 1.7 | 5.2 | 0.00 | 0.00 | 0.00 | 65 | 1010.8 |
| 20260506183451 | 55 | 73 | 2.6 | 5.2 | 0.00 | 0.00 | 0.00 | 65 | 1010.8 |
| 20260506182951 | 55 | 78 | 2.6 | 5.2 | 0.00 | 0.00 | 0.00 | 65 | 1010.7 |
| 20260506182449 | 55 | 76 | 2.6 | 5.2 | 0.00 | 0.00 | 0.00 | 64 | 1010.6 |
| 20260506181949 | 55 | 66 | 3.5 | 5.2 | 0.00 | 0.00 | 0.00 | 65 | 1010.5 |
| 20260506181725 | 55 | 74 | 5.2 | 5.2 | 0.00 | 0.00 | 0.00 | 65 | 1010.6 |
| 20260506180949 | 55 | 47 | 1.7 | 4.3 | 0.00 | 0.00 | 0.00 | 65 | 1010.5 |
| 20260506180448 | 55 | 51 | 2.6 | 4.3 | 0.00 | 0.00 | 0.00 | 64 | 1010.5 |
| 20260506175947 | 55 | 15 | 2.6 | 6.1 | 0.00 | 0.00 | 0.00 | 64 | 1010.5 |
| 20260506175447 | 55 | 71 | 3.5 | 6.1 | 0.00 | 0.00 | 0.00 | 64 | 1010.4 |
| 20260506174945 | 55 | 78 | 5.2 | 5.2 | 0.00 | 0.00 | 0.00 | 64 | 1010.4 |
| 20260506174717 | 55 | 56 | 2.6 | 7.8 | 0.00 | 0.00 | 0.00 | 63 | 1010.3 |
| 20260506173944 | 56 | 79 | 3.5 | 8.7 | 0.00 | 0.00 | 0.00 | 63 | 1010.1 |
| 20260506173445 | 56 | 58 | 6.1 | 8.7 | 0.00 | 0.00 | 0.00 | 62 | 1010.2 |
| 20260506172945 | 56 | 40 | 3.5 | 7.8 | 0.00 | 0.00 | 0.00 | 62 | 1010.1 |
| 20260506172444 | 56 | 51 | 4.3 | 10.4 | 0.00 | 0.00 | 0.00 | 62 | 1010.1 |
| 20260506172216 | 56 | 8 | 5.2 | 13.0 | 0.00 | 0.00 | 0.00 | 61 | 1009.9 |
| 20260506171441 | 56 | 0 | 6.1 | 13.0 | 0.00 | 0.00 | 0.00 | 60 | 1010.0 |
| 20260506170942 | 56 | 4 | 6.1 | 12.2 | 0.00 | 0.00 | 0.00 | 59 | 1010.0 |
| 20260506170441 | 57 | 22 | 8.7 | 12.2 | 0.00 | 0.00 | 0.00 | 59 | 1010.0 |
| 20260506165939 | 57 | 22 | 7.8 | 12.2 | 0.00 | 0.00 | 0.00 | 60 | 1009.8 |
| 20260506165438 | 57 | 9 | 7.0 | 13.0 | 0.00 | 0.00 | 0.00 | 60 | 1009.7 |
| 20260506164940 | 57 | 22 | 9.6 | 13.9 | 0.00 | 0.00 | 0.00 | 60 | 1009.8 |
| 20260506164438 | 57 | 28 | 11.3 | 13.9 | 0.00 | 0.00 | 0.00 | 59 | 1009.8 |
| 20260506163937 | 57 | 32 | 8.7 | 13.0 | 0.00 | 0.00 | 0.00 | 59 | 1009.9 |
| 20260506163438 | 57 | 11 | 9.6 | 13.0 | 0.00 | 0.00 | 0.00 | 59 | 1009.7 |
| 20260506162933 | 58 | 20 | 8.7 | 11.3 | 0.00 | 0.00 | 0.00 | 60 | 1009.7 |
| 20260506162703 | 58 | 356 | 7.8 | 14.8 | 0.00 | 0.00 | 0.00 | 60 | 1009.6 |
| 20260506162658 | 58 | 7 | 8.7 | 11.3 | 0.00 | 0.00 | 0.00 | 60 | 1009.6 |
| 20260506161432 | 58 | 10 | 7.8 | 15.6 | 0.00 | 0.00 | 0.00 | 60 | 1009.9 |
| 20260506160931 | 58 | 4 | 8.7 | 15.6 | 0.00 | 0.00 | 0.00 | 59 | 1009.6 |
| 20260506160431 | 58 | 7 | 7.8 | 15.6 | 0.00 | 0.00 | 0.00 | 58 | 1009.6 |
| 20260506160202 | 58 | 37 | 10.4 | 14.8 | 0.00 | 0.00 | 0.00 | 58 | 1009.6 |
| 20260506155430 | 58 | 6 | 7.8 | 13.0 | 0.00 | 0.00 | 0.00 | 57 | 1009.7 |
| 20260506154930 | 58 | 356 | 7.8 | 13.0 | 0.00 | 0.00 | 0.00 | 57 | 1009.8 |
| 20260506154433 | 59 | 0 | 7.0 | 13.0 | 0.00 | 0.00 | 0.00 | 55 | 1009.7 |
| 20260506153932 | 59 | 0 | 8.7 | 17.4 | 0.00 | 0.00 | 0.00 | 57 | 1009.8 |
| 20260506153430 | 60 | 13 | 11.3 | 17.4 | 0.00 | 0.00 | 0.00 | 54 | 1009.7 |
| 20260506152931 | 61 | 4 | 9.6 | 15.6 | 0.00 | 0.00 | 0.00 | 53 | 1009.6 |
| 20260506152431 | 61 | 4 | 8.7 | 16.5 | 0.00 | 0.00 | 0.00 | 53 | 1009.6 |
| 20260506151929 | 61 | 12 | 10.4 | 17.4 | 0.00 | 0.00 | 0.00 | 52 | 1009.6 |
| 20260506151659 | 61 | 359 | 6.1 | 17.4 | 0.00 | 0.00 | 0.00 | 53 | 1009.6 |
| 20260506150929 | 61 | 10 | 11.3 | 16.5 | 0.00 | 0.00 | 0.00 | 52 | 1009.5 |
| 20260506150427 | 61 | 20 | 11.3 | 13.9 | 0.00 | 0.00 | 0.00 | 53 | 1009.4 |
| 20260506145926 | 61 | 16 | 7.0 | 15.6 | 0.00 | 0.00 | 0.00 | 53 | 1009.4 |
| 20260506145427 | 61 | 40 | 8.7 | 15.6 | 0.00 | 0.00 | 0.00 | 49 | 1009.6 |
| 20260506144925 | 62 | 12 | 11.3 | 14.8 | 0.00 | 0.00 | 0.00 | 51 | 1009.3 |
| 20260506144424 | 63 | 8 | 10.4 | 16.5 | 0.00 | 0.00 | 0.00 | 50 | 1009.3 |
| 20260506144151 | 64 | 2 | 5.2 | 16.5 | 0.00 | 0.00 | 0.00 | 49 | 1009.4 |
| 20260506143425 | 63 | 9 | 11.3 | 14.8 | 0.00 | 0.00 | 0.00 | 50 | 1009.2 |
| 20260506142923 | 63 | 5 | 10.4 | 14.8 | 0.00 | 0.00 | 0.00 | 50 | 1009.4 |
| 20260506142423 | 62 | 20 | 10.4 | 14.8 | 0.00 | 0.00 | 0.00 | 52 | 1009.4 |
| 20260506141922 | 63 | 9 | 10.4 | 14.8 | 0.00 | 0.00 | 0.00 | 54 | 1009.4 |
| 20260506141421 | 63 | 15 | 7.8 | 14.8 | 0.00 | 0.00 | 0.00 | 53 | 1009.3 |
| 20260506140923 | 63 | 7 | 10.4 | 14.8 | 0.00 | 0.00 | 0.00 | 54 | 1009.2 |
| 20260506140420 | 64 | 16 | 9.6 | 14.8 | 0.00 | 0.00 | 0.00 | 53 | 1009.4 |
| 20260506135920 | 64 | 44 | 5.2 | 13.0 | 0.00 | 0.00 | 0.00 | 54 | 1009.2 |
| 20260506135421 | 64 | 8 | 10.4 | 13.9 | 0.00 | 0.00 | 0.00 | 52 | 1009.2 |
| 20260506134919 | 63 | 11 | 9.6 | 14.8 | 0.00 | 0.00 | 0.00 | 55 | 1009.2 |
| 20260506134651 | 63 | 31 | 10.4 | 15.6 | 0.00 | 0.00 | 0.00 | 54 | 1009.2 |
| 20260506134150 | 63 | 23 | 14.8 | 16.5 | 0.00 | 0.00 | 0.00 | 56 | 1009.1 |
| 20260506133418 | 63 | 357 | 13.9 | 16.5 | 0.00 | 0.00 | 0.00 | 55 | 1009.3 |
| 20260506133150 | 63 | 27 | 8.7 | 16.5 | 0.00 | 0.00 | 0.00 | 53 | 1009.2 |
| 20260506132417 | 63 | 7 | 10.4 | 18.2 | 0.00 | 0.00 | 0.00 | 55 | 1009.1 |
| 20260506131915 | 63 | 31 | 8.7 | 24.3 | 0.00 | 0.00 | 0.00 | 54 | 1009.2 |
| 20260506131648 | 63 | 23 | 14.8 | 24.3 | 0.00 | 0.00 | 0.00 | 52 | 1009.2 |
| 20260506130916 | 64 | 11 | 13.9 | 20.0 | 0.00 | 0.00 | 0.00 | 54 | 1009.2 |
| 20260506130415 | 64 | 0 | 15.6 | 20.0 | 0.00 | 0.00 | 0.00 | 52 | 1009.1 |
| 20260506125912 | 64 | 34 | 13.0 | 16.5 | 0.00 | 0.00 | 0.00 | 54 | 1009.1 |
| 20260506125411 | 64 | 8 | 9.6 | 16.5 | 0.00 | 0.00 | 0.00 | 55 | 1008.9 |
| 20260506124913 | 63 | 9 | 8.7 | 17.4 | 0.00 | 0.00 | 0.00 | 55 | 1008.9 |
| 20260506124640 | 62 | 1 | 8.7 | 17.4 | 0.00 | 0.00 | 0.00 | 58 | 1009.0 |
| 20260506124139 | 62 | 8 | 7.8 | 15.6 | 0.00 | 0.00 | 0.00 | 60 | 1009.1 |
| 20260506123410 | 60 | 4 | 11.3 | 16.5 | 0.00 | 0.00 | 0.00 | 61 | 1008.9 |
| 20260506122909 | 60 | 14 | 10.4 | 16.5 | 0.00 | 0.00 | 0.00 | 58 | 1008.9 |
| 20260506122632 | 59 | 2 | 10.4 | 18.2 | 0.00 | 0.00 | 0.00 | 60 | 1009.0 |
| 20260506121909 | 58 | 0 | 9.6 | 18.2 | 0.00 | 0.00 | 0.00 | 60 | 1008.9 |
| 20260506121409 | 58 | 15 | 16.5 | 19.1 | 0.00 | 0.00 | 0.00 | 61 | 1008.9 |
| 20260506120907 | 58 | 31 | 10.4 | 19.1 | 0.00 | 0.00 | 0.00 | 62 | 1008.8 |
| 20260506120406 | 59 | 13 | 13.0 | 22.6 | 0.00 | 0.00 | 0.00 | 60 | 1008.9 |
| 20260506115906 | 60 | 1 | 14.8 | 23.5 | 0.00 | 0.00 | 0.00 | 58 | 1009.0 |
| 20260506115405 | 62 | 0 | 19.1 | 23.5 | 0.00 | 0.00 | 0.00 | 55 | 1009.1 |
| 20260506114906 | 64 | 28 | 11.3 | 20.0 | 0.00 | 0.00 | 0.00 | 56 | 1008.8 |
| 20260506114405 | 65 | 2 | 14.8 | 22.6 | 0.00 | 0.00 | 0.00 | 57 | 1008.7 |
| 20260506113904 | 64 | 6 | 9.6 | 22.6 | 0.00 | 0.00 | 0.00 | 56 | 1008.7 |
| 20260506113403 | 64 | 12 | 19.1 | 21.7 | 0.00 | 0.00 | 0.00 | 54 | 1008.7 |
| 20260506113136 | 62 | 10 | 8.7 | 21.7 | 0.00 | 0.00 | 0.00 | 55 | 1008.9 |
| 20260506112631 | 61 | 21 | 10.4 | 21.7 | 0.00 | 0.00 | 0.00 | 59 | 1008.9 |
| 20260506111902 | 60 | 7 | 9.6 | 18.2 | 0.00 | 0.00 | 0.00 | 60 | 1008.9 |
| 20260506111401 | 60 | 19 | 14.8 | 18.2 | 0.00 | 0.00 | 0.00 | 57 | 1008.9 |
| 20260506110901 | 59 | 15 | 13.9 | 16.5 | 0.00 | 0.00 | 0.00 | 63 | 1008.7 |
| 20260506110628 | 58 | 10 | 9.6 | 15.6 | 0.00 | 0.00 | 0.00 | 62 | 1008.7 |
| 20260506105901 | 58 | 17 | 12.2 | 16.5 | 0.00 | 0.00 | 0.00 | 62 | 1008.8 |
| 20260506105401 | 58 | 353 | 12.2 | 17.4 | 0.00 | 0.00 | 0.00 | 61 | 1008.7 |
| 20260506105127 | 58 | 18 | 13.0 | 17.4 | 0.00 | 0.00 | 0.00 | 64 | 1008.8 |
| 20260506104400 | 58 | 14 | 10.4 | 18.2 | 0.00 | 0.00 | 0.00 | 63 | 1008.9 |
| 20260506103858 | 57 | 5 | 11.3 | 18.2 | 0.00 | 0.00 | 0.00 | 64 | 1008.9 |
| 20260506103622 | 57 | 354 | 11.3 | 17.4 | 0.00 | 0.00 | 0.00 | 66 | 1008.9 |
| 20260506103126 | 57 | 359 | 15.6 | 17.4 | 0.00 | 0.00 | 0.00 | 65 | 1008.8 |
| 20260506102356 | 57 | 28 | 10.4 | 18.2 | 0.00 | 0.00 | 0.00 | 66 | 1008.7 |
| 20260506101855 | 57 | 17 | 8.7 | 18.2 | 0.00 | 0.00 | 0.00 | 66 | 1008.7 |
| 20260506101355 | 58 | 5 | 13.0 | 19.1 | 0.00 | 0.00 | 0.00 | 68 | 1008.6 |
| 20260506100854 | 58 | 352 | 13.0 | 19.1 | 0.00 | 0.00 | 0.00 | 68 | 1008.6 |
| 20260506100356 | 58 | 5 | 11.3 | 18.2 | 0.00 | 0.00 | 0.00 | 69 | 1008.7 |
| 20260506100125 | 58 | 9 | 13.9 | 20.0 | 0.00 | 0.00 | 0.00 | 67 | 1008.7 |
| 20260506095623 | 58 | 359 | 12.2 | 21.7 | 0.00 | 0.00 | 0.00 | 67 | 1008.5 |
| 20260506094853 | 59 | 349 | 18.2 | 21.7 | 0.00 | 0.00 | 0.00 | 67 | 1008.5 |
| 20260506094628 | 59 | 18 | 17.4 | 20.0 | 0.00 | 0.00 | 0.00 | 68 | 1008.6 |
| 20260506093853 | 59 | 20 | 14.8 | 20.0 | 0.00 | 0.00 | 0.00 | 67 | 1008.6 |